星链-5358 (STARLINK-5358 )

导读 | 豆包AI

STARLINK-5358是美国太空探索技术公司星链星座的一员,于2023年6月23日发射入轨。星链项目旨在构建全球卫星互联网星座,为全球提供高速低延迟宽带服务。该卫星加入后进一步扩充了星链星座规模,提升星座覆盖能力与服务稳定性,推动全球卫星通信网络建设。

基本信息
目录编号:
57143
目录名称:
STARLINK-5358
国际标识:
2023-090AU
轨道中心:
EARTH
卫星名称:
星链-5358
卫星全名:
星链-5358 (STARLINK-5358 )
卫星状态:
在轨 (已飞行1042 天)
发射日期:
2023-06-23 UTC
国别 :
美国 (US)
星等 :
--
轨道信息
数据来源 国际轨道数据
星历时间: 2026-04-30T04:51:17+0800
16小时前
查看轨道信息
半长轴: 6863.696km
偏心率: 0.0001383
轨道倾角: 43.005°
近地点辐角 259.416°
升交点赤经 334.047°
平近点角 100.654°
近地点: 484.609km
远地点: 486.509km
周期: 94.318分钟
每日圈数: 15.267424
详细信息
固有亮度:
5
最大亮度:
2.4
卫星平台:
Starlink v1.5
覆盖范围:
全球
运营商:
太空探索技术公司
运营商所在国:
美国
制造商(研发单位):
太空探索技术公司
制造商所在国:
美国
使用方式:
暂无
卫星简介
星链(Starlink)计划是由太空探索技术公司(SpaceX)提出的一个巨型低轨卫星互联网星座项目,计划在2019年至2024年间在太空搭建由约1.2万颗卫星组成的“星链”网络,其中1584颗将部署在地球上空550千米处的近地轨道,并从2020年开始工作。该卫星仍在工作。
2D轨道图
3D轨道图
轨道高度分析图
轨道倾角分析图
轨道综合分析图
查看轨道综合分析图